Regional Weather Roundup
Issued by NWS

Home | Current Version | Previous Version | Graphics & Text | Print | Product List | Glossary Off
Versions: 1 2 3 4 5 6 7 8 9 10 11 12 13 14 15 16 17 18 19 20 21 22 23 24 25 26 27 28 29 30 31 32 33 34 35 36 37 38 39 40 41 42 43 44 45 46 47 48 49 50

000
ASUS43 KMPX 232001
RWRMN
WEATHER ROUNDUP FOR MINNESOTA
NATIONAL WEATHER SERVICE TWIN CITIES/CHANHASSEN MN
300 PM CDT SUN JUL 23 2017


NOTE: "FAIR" INDICATES FEW OR NO CLOUDS BELOW 12,000 FEET WITH NO
SIGNIFICANT WEATHER AND/OR OBSTRUCTIONS TO VISIBILITY. N/A MEANS
CURRENT SKY AND/OR WEATHER CONDITIONS ARE NOT AVAILABLE.

MNZ060>063-068>070-232100-
   Twin Cities Metro

CITY           SKY/WX    TMP DP  RH WIND       PRES   REMARKS
TWIN CITIES    PTSUNNY   75  59  57 N12       29.94S
ST PAUL        PTSUNNY   75  61  61 N8        29.94S
CRYSTAL        PTSUNNY   75  58  55 NW15      29.93S
BLAINE         MOSUNNY   75  61  60 NW10      29.95R
LAKEVILLE      CLOUDY    72  57  60 NW13G22   29.94R
EDEN PRAIRIE   PTSUNNY   77  61  57 NW12G17   29.93S
SOUTH ST PAUL  PTSUNNY   74  58  56 N12       29.93S
LAKE ELMO      PTSUNNY   73  61  64 N6        29.95S
$$
MNZ001>005-007-008-013>017-022>024-027-028-232100-
   Northwest Minnesota

CITY           SKY/WX    TMP DP  RH WIND       PRES   REMARKS
BEMIDJI        PTSUNNY   70  57  65 E7        30.02S
HALLOCK        PTSUNNY   75  61  60 CALM      29.99F
ROSEAU         SUNNY     77  63  61 CALM      30.01S
WARROAD        SUNNY     73  63  68 NE6       30.02S
CROOKSTON      SUNNY     75  63  64 NW6       30.01S
FOSSTON        PTSUNNY   73  64  73 N7        30.02S
DETROIT LAKES  CLOUDY    70  59  68 NE6       30.03S
MOORHEAD       MOSUNNY   72  61  68 NW5       30.02S
PARK RAPIDS    CLOUDY    73  58  59 NE9       30.01R
MAHNOMEN       CLOUDY    73  60  64 NE6       30.02R
$$
MNZ006-009>011-018-025>026-232100-
   North Central Minnesota

CITY           SKY/WX    TMP DP  RH WIND       PRES   REMARKS
BAUDETTE       SUNNY     74  55  51 SE3       30.00S
FLAG ISLAND    MOSUNNY   75  57  53 CALM      30.00S HAZE
INTL FALLS     MOSUNNY   75  53  46 NE6       30.00S
WASKISH        MOSUNNY   79  55  44 CALM      30.00S
BIG FORK       MOSUNNY   73  57  56 NE5       30.01R
LONGVILLE      CLOUDY    70  59  68 N8        30.01R
GRAND RAPIDS   CLOUDY    69  58  67 VRB5      30.03R
CRANE LAKE     MOSUNNY   73  54  49 CALM      30.01R
ORR            MOSUNNY   73  52  46 N3        29.98S
COOK           MOSUNNY   73  54  49 CALM      30.00S
WALKER         CLOUDY    67  57  68 N7        30.02R
$$
MNZ012-019>021-037-232100-
   Northeast Minnesota

CITY           SKY/WX    TMP DP  RH WIND       PRES   REMARKS
DULUTH         CLOUDY    62  59  90 SE7       30.01R
ELY            MOSUNNY   72  54  53 N3        29.99R
HIBBING        CLOUDY    69  59  70 NE8       30.00S
EVELETH        PTSUNNY   70  62  76 CALM      30.02R
DULUTH HARBOR  CLOUDY    61  59  94 NE8       30.02R FOG
TWO HARBORS    CLOUDY    66  61  82 CALM      29.99R
SILVER BAY     CLOUDY    64  59  82 CALM      29.98R
GRAND MARAIS     N/A     59  53  80 E10       29.98R
$$
MNZ029>031-032-039>041-046>048-054>057-064-232100-
   West Central Minnesota

CITY           SKY/WX    TMP DP  RH WIND       PRES   REMARKS
FERGUS FALLS   CLOUDY    70  61  73 NW6       30.01S
WHEATON        PTSUNNY   72  59  64 N5        30.04R
MORRIS         MOSUNNY   75  57  53 NW12      30.01S
ALEXANDRIA     PTSUNNY   74  59  59 N8        30.02S
ELBOW LAKE     CLOUDY    70  61  72 NW9       30.03R
WADENA         CLOUDY    72  59  64 CALM      30.00S
GLENWOOD       MOSUNNY   73  57  56 N7        30.01S
APPLETON       PTSUNNY   73  57  56 N12       30.00F
BENSON         PTSUNNY   75  61  60 N8        30.01S
ORTONVILLE     CLOUDY    72  57  60 N10       30.02S
MADISON        CLOUDY    75  59  57 N13G18    30.02S
WILLMAR        PTSUNNY   73  61  64 N10       30.00S
$$
MNZ033>034-036-042>043-049>051-058-059-232100-
   Central Minnesota

CITY           SKY/WX    TMP DP  RH WIND       PRES   REMARKS
ST CLOUD       CLOUDY    72  61  68 N10       29.97R
SAUK CENTRE    CLOUDY    73  59  61 N9        29.99S
PAYNESVILLE    MOSUNNY   77  58  52 NW8       29.99S
AITKIN         PTSUNNY   70  57  64 NE10      29.98R
PINE RIVER     CLOUDY    72  59  64 N9        30.03S
BRAINERD       PTSUNNY   71  58  63 N8        30.00R
STAPLES        CLOUDY    73  55  53 N7        30.00R
LONG PRAIRIE   CLOUDY    72  59  64 NW6       30.00S
LITTLE FALLS   MOSUNNY   73  54  49 NW7       29.98S
LITCHFIELD     MOSUNNY   77  61  57 N12       29.98S
BUFFALO        MOSUNNY   76  58  53 NW9       29.97S
MAPLE LAKE     MOSUNNY   77  62  59 N6        29.97S
HUTCHINSON     PTSUNNY   74  61  63 W10       29.98S
$$
MNZ037-044-045-052-053-232100-
   East Central Minnesota

CITY           SKY/WX    TMP DP  RH WIND       PRES   REMARKS
PRINCETON      PTSUNNY   75  61  60 N8        29.97R
MORA           MOSUNNY   70  59  68 E3        29.99S
CAMBRIDGE      PTSUNNY   75  59  57 N7        29.95R
RUSH CITY      MOSUNNY   73  59  62 NE8       29.97R
MOOSE LAKE     CLOUDY    68  57  68 CALM      29.98R
HINCKLEY       CLOUDY    72  59  64 N8        29.98R
CLOQUET        CLOUDY    66  55  68 E7        30.01R
MCGREGOR       CLOUDY    68  59  73 N7        30.00S
$$
MNZ071>073-080-081-089-090-097-098-232100-
   Southwest Minnesota

CITY           SKY/WX    TMP DP  RH WIND       PRES   REMARKS
MONTEVIDEO     PTSUNNY   79  61  53 N10G18    30.01S
GRANITE FALLS  CLOUDY    75  60  60 NW7G17    30.01S
CANBY          PTSUNNY   76  57  50 N12G17    30.03S
MARSHALL       MOSUNNY   72  60  66 N16       30.01S
REDWOOD FALLS  PTSUNNY   75  58  55 N8        29.98S
OLIVIA         CLOUDY    73  59  60 NW12G17   29.98S
PIPESTONE      SUNNY     75  57  53 NE10G16   30.02S
WINDOM         SUNNY     72  57  60 NW13      30.00F
WORTHINGTON    MOSUNNY   75  60  59 N16       30.01S
JACKSON        PTSUNNY   72  59  64 N12G22    30.00S
SLAYTON        HVY RAIN  72  58  62 N14       30.03S
$$
MNZ065>067-074>077-082>085-091>093-232100-
   South Central Minnesota

CITY           SKY/WX    TMP DP  RH WIND       PRES   REMARKS
MANKATO        PTSUNNY   73  59  61 NW16      29.96S
NEW ULM        PTSUNNY   75  57  53 N10G21    29.97S
ST JAMES       CLOUDY    73  61  64 NW7       29.98F
FAIRMONT       MOSUNNY   74  61  63 NW15      29.97F
GLENCOE        PTSUNNY   75  63  66 NW12      29.96S
FARIBAULT      PTSUNNY   73  61  64 NW10      29.95R
OWATONNA       MOSUNNY   73  61  64 N12       29.95R
WASECA         PTSUNNY   73  59  60 NW10G16   29.96S
ALBERT LEA     MOSUNNY   73  57  56 NW12G21   29.94S
$$
MNZ078>079-086>088-094>096-232100-
   Southeast Minnesota

CITY           SKY/WX    TMP DP  RH WIND       PRES   REMARKS
ROCHESTER      CLOUDY    73  60  63 N13G20    29.94R
RED WING       MOSUNNY   75  55  50 N10       29.91S
STANTON        CLOUDY    75  59  56 N8        29.92S
DODGE CENTER   PTSUNNY   73  61  64 N12       29.94S
WINONA         CLOUDY    75  61  60 NW12G17   29.89S
AUSTIN           N/A     73  59  60 NW14      29.93S
PRESTON        CLOUDY    72  59  64 N14       29.92R
$$
ABBREVIATIONS USED IN REMARKS
   TC - TEMPERATURES IN CELSIUS
  WCI - WIND CHILL INDEX
   HX - HEAT INDEX
  VSB - VISIBILITY
$$




USA.gov is the U.S. government's official web portal to all federal, state and local government web resources and services.